Search the data

BODC Cruise Metadata Report for RV Knorr cruise KN204 (GA03)

Introduction

This report collates information from the BODC cruise inventory and oceanographic databases. It presents

Cruise Inventory Information

Long name RV Knorr cruise KN204 (GA03)
Short name KN204 (GA03)
Objectives and Narrative US GEOTRACES North Atlantic section cruise (KN199-4) was terminated after completing one-third of the planned stations due to mechanical problems with the ship.

KN204 was a hydrographic survey consisting of rosette/CTD sections and Bio-Optical casts in the mid-latitude
eastern Atlantic Ocean, carried out during November-December 2011.
Ship RV Knorr
Departure Port Woods Hole, United States
Departure Date 2011-11-06
Arrival Port Praia, Cape Verde
Arrival Date 2011-12-11
Principal Scientist(s) Edward A Boyle (Massachusetts Institute of Technology Department of Earth Atmospheric and Planetary Sciences), Gregory A Cutter (Old Dominion University Department of Ocean, Earth and Atmospheric Sciences)
Responsible Organisation
Associated Project(s) GEOTRACES -Trace elements and their isotopes in the water column
IHB Sea Areas Visited North Atlantic Ocean
Marsden Squares Visited 115/39/76/77/78
Work Area Description Mid-latitude eastern Atlantic Ocean
Work Area Bounding Polygon 10N,70W; 40N,70W; 40N,20W; 10N,20W; 10N,70W
Southern Limit 10N
Northern Limit 40N
Western Limit 70W
Eastern Limit 20W

Cruise Inventory Datasets

No information on datasets is currently available for this cruise

Cruise Inventory Mooring/Buoy Operations

No information on datasets is currently available

Summary of BODC Data Holdings for the Cruise

National Oceanographic Database

Summary

# Series Instrument Description Parameters
105 CTD/STD cast Density of the water column
Dissolved oxygen parameters in the water column
Raw fluorometer output
Raw suspended particulate material concentration sensor output
Reference numbers
Salinity of the water column
Temperature of the water column
Transmittance and attenuance of the water column
Vertical spatial coordinates
2 CTD/STD cast Density of the water column
Dissolved oxygen parameters in the water column
Raw suspended particulate material concentration sensor output
Reference numbers
Salinity of the water column
Temperature of the water column
Transmittance and attenuance of the water column
Vertical spatial coordinates

Note: Parameter terms are taken from the BODC Parameter Discovery Vocabulary XML (SKOS)

Full List

BODC Reference Instrument Description Date/Time Location  
1202031 CTD/STD cast 2011-11-07 05:11Z 39° 42' N, 69° 49' W Click for more
1202043 CTD/STD cast 2011-11-07 17:18Z 39° 42' N, 69° 47' W Click for more
1202055 CTD/STD cast 2011-11-07 21:53Z 39° 40' N, 69° 48' W Click for more
1202067 CTD/STD cast 2011-11-08 03:26Z 39° 42' N, 69° 48' W Click for more
1202079 CTD/STD cast 2011-11-08 10:56Z 39° 41' N, 69° 51' W Click for more
1202080 CTD/STD cast 2011-11-08 15:00Z 39° 42' N, 69° 48' W Click for more
1202092 CTD/STD cast 2011-11-08 22:20Z 39° 21' N, 69° 33' W Click for more
1202111 CTD/STD cast 2011-11-09 12:15Z 39° 21' N, 69° 32' W Click for more
1202123 CTD/STD cast 2011-11-09 16:00Z 39° 21' N, 69° 32' W Click for more
1202135 CTD/STD cast 2011-11-10 14:23Z 38° 39' N, 69° 7' W Click for more
1202147 CTD/STD cast 2011-11-11 07:57Z 38° 39' N, 69° 8' W Click for more
1202159 CTD/STD cast 2011-11-11 13:26Z 38° 40' N, 69° 6' W Click for more
1202160 CTD/STD cast 2011-11-12 14:57Z 38° 19' N, 68° 52' W Click for more
1202172 CTD/STD cast 2011-11-12 23:42Z 38° 19' N, 68° 52' W Click for more
1202184 CTD/STD cast 2011-11-13 05:42Z 38° 19' N, 68° 52' W Click for more
1202196 CTD/STD cast 2011-11-13 20:27Z 38° 4' N, 68° 42' W Click for more
1202203 CTD/STD cast 2011-11-14 10:18Z 37° 36' N, 68° 24' W Click for more
1202215 CTD/STD cast 2011-11-15 06:20Z 37° 36' N, 68° 23' W Click for more
1202227 CTD/STD cast 2011-11-15 10:28Z 37° 34' N, 68° 25' W Click for more
1202239 CTD/STD cast 2011-11-16 13:59Z 35° 25' N, 66° 32' W Click for more
1202240 CTD/STD cast 2011-11-16 21:49Z 35° 25' N, 66° 38' W Click for more
1202252 CTD/STD cast 2011-11-17 04:54Z 35° 25' N, 66° 31' W Click for more
1202264 CTD/STD cast 2011-11-19 19:31Z 31° 45' N, 64° 10' W Click for more
1202276 CTD/STD cast 2011-11-20 03:35Z 31° 45' N, 64° 10' W Click for more
1202288 CTD/STD cast 2011-11-20 11:21Z 31° 44' N, 64° 10' W Click for more
1202307 CTD/STD cast 2011-11-21 01:27Z 31° 45' N, 64° 10' W Click for more
1202319 CTD/STD cast 2011-11-21 04:44Z 31° 45' N, 64° 9' W Click for more
1202320 CTD/STD cast 2011-11-21 10:26Z 31° 45' N, 64° 10' W Click for more
1202332 CTD/STD cast 2011-11-22 08:14Z 30° 49' N, 60° 46' W Click for more
1202344 CTD/STD cast 2011-11-23 06:29Z 29° 42' N, 56° 49' W Click for more
1202356 CTD/STD cast 2011-11-23 14:12Z 29° 42' N, 56° 49' W Click for more
1202368 CTD/STD cast 2011-11-23 23:14Z 29° 42' N, 56° 49' W Click for more
1202381 CTD/STD cast 2011-11-24 10:44Z 29° 42' N, 56° 49' W Click for more
1202393 CTD/STD cast 2011-11-24 13:58Z 29° 42' N, 56° 49' W Click for more
1202400 CTD/STD cast 2011-11-24 22:13Z 29° 42' N, 56° 49' W Click for more
1202412 CTD/STD cast 2011-11-25 19:18Z 28° 38' N, 53° 13' W Click for more
1202424 CTD/STD cast 2011-11-26 15:01Z 27° 34' N, 49° 37' W Click for more
1202436 CTD/STD cast 2011-11-26 22:09Z 27° 34' N, 49° 37' W Click for more
1202448 CTD/STD cast 2011-11-27 02:58Z 27° 34' N, 49° 37' W Click for more
1202461 CTD/STD cast 2011-11-28 05:36Z 26° 51' N, 47° 13' W Click for more
1202473 CTD/STD cast 2011-11-29 00:29Z 26° 8' N, 44° 49' W Click for more
1202485 CTD/STD cast 2011-11-29 12:20Z 26° 8' N, 44° 49' W Click for more
1202497 CTD/STD cast 2011-11-29 21:00Z 26° 7' N, 44° 49' W Click for more
1202504 CTD/STD cast 2011-11-30 03:40Z 26° 8' N, 44° 49' W Click for more
1202516 CTD/STD cast 2011-11-30 07:03Z 26° 8' N, 44° 49' W Click for more
1202528 CTD/STD cast 2011-11-30 09:35Z 26° 8' N, 44° 49' W Click for more
1202541 CTD/STD cast 2011-12-01 01:32Z 25° 8' N, 42° 31' W Click for more
1202553 CTD/STD cast 2011-12-01 17:25Z 24° 9' N, 40° 13' W Click for more
1202565 CTD/STD cast 2011-12-02 00:19Z 24° 9' N, 40° 13' W Click for more
1202577 CTD/STD cast 2011-12-02 08:07Z 24° 9' N, 40° 13' W Click for more
1202589 CTD/STD cast 2011-12-03 08:40Z 23° 15' N, 38° 2' W Click for more
1202590 CTD/STD cast 2011-12-03 23:12Z 22° 19' N, 35° 52' W Click for more
1202608 CTD/STD cast 2011-12-04 06:23Z 22° 19' N, 35° 52' W Click for more
1202621 CTD/STD cast 2011-12-04 15:08Z 22° 19' N, 35° 52' W Click for more
1202633 CTD/STD cast 2011-12-05 03:39Z 22° 22' N, 35° 52' W Click for more
1202645 CTD/STD cast 2011-12-05 07:18Z 22° 22' N, 35° 52' W Click for more
1202657 CTD/STD cast 2011-12-05 15:17Z 22° 22' N, 35° 52' W Click for more
1202669 CTD/STD cast 2011-12-06 14:53Z 20° 52' N, 32° 37' W Click for more
1202670 CTD/STD cast 2011-12-07 11:25Z 19° 25' N, 29° 22' W Click for more
1202682 CTD/STD cast 2011-12-07 18:31Z 19° 25' N, 29° 22' W Click for more
1202694 CTD/STD cast 2011-12-08 02:02Z 19° 25' N, 29° 22' W Click for more
1202701 CTD/STD cast 2011-12-09 05:01Z 18° 23' N, 26° 45' W Click for more
1202713 CTD/STD cast 2011-12-09 20:05Z 17° 24' N, 24° 30' W Click for more
1202725 CTD/STD cast 2011-12-10 02:32Z 17° 24' N, 24° 30' W Click for more
1202737 CTD/STD cast 2011-12-10 08:27Z 17° 24' N, 24° 30' W Click for more
1202749 CTD/STD cast 2011-11-07 03:01Z 39° 42' N, 69° 48' W Click for more
1202750 CTD/STD cast 2011-11-07 19:15Z 39° 41' N, 69° 48' W Click for more
1202762 CTD/STD cast 2011-11-08 19:26Z 39° 21' N, 69° 32' W Click for more
1202774 CTD/STD cast 2011-11-09 11:18Z 39° 21' N, 69° 32' W Click for more
1202786 CTD/STD cast 2011-11-10 12:08Z 38° 40' N, 69° 6' W Click for more
1202798 CTD/STD cast 2011-11-11 01:00Z 38° 40' N, 69° 6' W Click for more
1202805 CTD/STD cast 2011-11-12 18:10Z 38° 20' N, 68° 52' W Click for more
1202817 CTD/STD cast 2011-11-13 11:05Z 38° 21' N, 68° 51' W Click for more
1202829 CTD/STD cast 2011-11-13 19:04Z 38° 5' N, 68° 42' W Click for more
1202830 CTD/STD cast 2011-11-14 01:48Z 37° 36' N, 68° 23' W Click for more
1202842 CTD/STD cast 2011-11-15 02:40Z 37° 33' N, 68° 27' W Click for more
1202854 CTD/STD cast 2011-11-15 08:47Z 37° 37' N, 68° 22' W Click for more
1202866 CTD/STD cast 2011-11-16 12:24Z 35° 25' N, 66° 31' W Click for more
1202878 CTD/STD cast 2011-11-17 00:10Z 35° 25' N, 66° 31' W Click for more
1202891 CTD/STD cast 2011-11-19 18:21Z 31° 45' N, 64° 10' W Click for more
1202909 CTD/STD cast 2011-11-20 07:12Z 31° 45' N, 64° 10' W Click for more
1202910 CTD/STD cast 2011-11-21 03:32Z 31° 45' N, 64° 10' W Click for more
1202922 CTD/STD cast 2011-11-21 08:18Z 31° 45' N, 64° 9' W Click for more
1202934 CTD/STD cast 2011-11-22 06:49Z 30° 49' N, 60° 46' W Click for more
1202946 CTD/STD cast 2011-11-23 05:08Z 29° 42' N, 56° 49' W Click for more
1202958 CTD/STD cast 2011-11-23 18:10Z 29° 42' N, 56° 49' W Click for more
1202971 CTD/STD cast 2011-11-24 17:40Z 29° 42' N, 56° 49' W Click for more
1202983 CTD/STD cast 2011-11-25 17:47Z 28° 38' N, 53° 13' W Click for more
1202995 CTD/STD cast 2011-11-26 13:57Z 27° 34' N, 49° 37' W Click for more
1203009 CTD/STD cast 2011-11-26 23:17Z 27° 34' N, 49° 37' W Click for more
1203010 CTD/STD cast 2011-11-28 04:22Z 26° 51' N, 47° 13' W Click for more
1203022 CTD/STD cast 2011-11-28 20:18Z 26° 8' N, 44° 49' W Click for more
1203034 CTD/STD cast 2011-11-29 15:27Z 26° 8' N, 44° 49' W Click for more
1203046 CTD/STD cast 2011-11-30 04:59Z 26° 8' N, 44° 49' W Click for more
1203058 CTD/STD cast 2011-12-01 00:04Z 25° 8' N, 42° 31' W Click for more
1203071 CTD/STD cast 2011-12-01 16:06Z 24° 9' N, 40° 13' W Click for more
1203083 CTD/STD cast 2011-12-02 03:34Z 24° 9' N, 40° 13' W Click for more
1203095 CTD/STD cast 2011-12-03 06:58Z 23° 14' N, 38° 2' W Click for more
1203102 CTD/STD cast 2011-12-03 21:47Z 22° 19' N, 35° 52' W Click for more
1203114 CTD/STD cast 2011-12-04 10:15Z 22° 19' N, 35° 52' W Click for more
1203126 CTD/STD cast 2011-12-05 10:55Z 22° 22' N, 35° 52' W Click for more
1203138 CTD/STD cast 2011-12-06 13:37Z 20° 52' N, 32° 37' W Click for more
1203151 CTD/STD cast 2011-12-07 10:06Z 19° 25' N, 29° 22' W Click for more
1203163 CTD/STD cast 2011-12-07 22:01Z 19° 25' N, 29° 22' W Click for more
1203175 CTD/STD cast 2011-12-09 03:51Z 18° 23' N, 26° 46' W Click for more
1203187 CTD/STD cast 2011-12-09 18:24Z 17° 24' N, 24° 30' W Click for more
1203199 CTD/STD cast 2011-12-10 05:24Z 17° 24' N, 24° 30' W Click for more

Project Database

# Events Gear Type Parameters Held
1 No parameter data available

Note: Parameter terms are taken from the BODC Parameter Discovery Vocabulary XML (SKOS)

References

Track Charts

Track Chart

Reports

Cruise Report

Cruise Report